Venice, FL

9:57 AM EST on February 10, 2016 (GMT -0500)
Venice Municipal

Weather History for KVNC - March, 2013

Change the Weather History Date:

Monday, March 4, 2013

  Actual Average (KSRQ) Record (KSRQ)
Temperature  
Mean Temperature 50 °F 65 °F  
Max Temperature 60 °F 75 °F 87 °F (1976)
Min Temperature 39 °F 55 °F 30 °F (1943)
Degree Days  
Heating Degree Days 16 3  
Month to date heating degree days 12  
Since 1 July heating degree days 430  
Cooling Degree Days 0 3  
Month to date cooling degree days 12  
Year to date cooling degree days 116  
Moisture  
Dew Point 39 °F    
Average Humidity 64    
Maximum Humidity 87    
Minimum Humidity 42    
Precipitation  
Precipitation 0.00 in 0.13 in 1.77 in (1957)
Month to date precipitation 0.50  
Year to date precipitation 5.69  
Sea Level Pressure  
Sea Level Pressure 30.19 in    
Wind  
Wind Speed 9 mph (NNE)    
Max Wind Speed 16 mph    
Max Gust Speed 22 mph    
Visibility 10 miles    
Events      
T = Trace of Precipitation, MM = Missing Value Source: NWS Daily Summary

Daily Weather History Graph

Daily Weather History Graph

Search for Another Location

Airport or City:

Trip Planner

Search our weather history database for the weather conditions in past years. The results will help you decide how hot, cold, wet, or windy it might be!

Date:

Astronomy

Mar. 04, 2013 Rise Set
Actual Time 6:50 AM EST 6:32 PM EST
Civil Twilight 6:27 AM EST 6:55 PM EST
Nautical Twilight 6:00 AM EST 7:22 PM EST
Astronomical Twilight 5:33 AM EST 7:49 PM EST
Moon 12:37 AM EST (3/4) 11:35 AM EST (3/4)
Length of Visible Light 12h 28m
Length of Day
11h 42m
Waning Gibbous, 52% of the Moon is Illuminated
Mar 4
Waning Gibbous
Mar 4
Last Quarter
Mar 11
New
Mar 19
First Quarter
Mar 27
Full

Hourly Weather History & Observations

Time (EST) Temp. Windchill Dew Point Humidity Pressure Visibility Wind Dir Wind Speed Gust Speed Precip Events Conditions
12:15 AM 55.4 °F - 41.0 °F 58% 30.18 in 10.0 mi NW 13.8 mph - N/A   Overcast
12:35 AM 55.4 °F - 41.0 °F 58% 30.18 in 10.0 mi NNW 16.1 mph - N/A   Overcast
12:55 AM 55.4 °F - 41.0 °F 58% 30.18 in 10.0 mi NNW 15.0 mph 21.9 mph N/A   Overcast
1:15 AM 55.4 °F - 39.2 °F 54% 30.17 in 10.0 mi NNW 15.0 mph 19.6 mph N/A   Overcast
1:35 AM 53.6 °F - 39.2 °F 58% 30.17 in 10.0 mi North 9.2 mph 17.3 mph N/A   Overcast
1:55 AM 48.2 °F - 39.2 °F 71% 30.16 in 10.0 mi NNE 5.8 mph - N/A   Overcast
2:15 AM 44.6 °F 40.2 °F 37.4 °F 76% 30.16 in 10.0 mi NE 8.1 mph - N/A   Mostly Cloudy
2:35 AM 44.6 °F 39.7 °F 37.4 °F 76% 30.16 in 10.0 mi NE 9.2 mph - N/A   Mostly Cloudy
2:55 AM 42.8 °F 38.0 °F 35.6 °F 76% 30.15 in 10.0 mi NNE 8.1 mph - N/A   Scattered Clouds
3:15 AM 41.0 °F 36.4 °F 35.6 °F 81% 30.15 in 10.0 mi NE 6.9 mph - N/A   Partly Cloudy
3:35 AM 41.0 °F 37.1 °F 35.6 °F 81% 30.15 in 10.0 mi ENE 5.8 mph - N/A   Partly Cloudy
4:15 AM 41.0 °F 37.1 °F 35.6 °F 81% 30.16 in 10.0 mi ENE 5.8 mph - N/A   Scattered Clouds
4:35 AM 41.0 °F 36.4 °F 35.6 °F 81% 30.17 in 10.0 mi East 6.9 mph - N/A   Scattered Clouds
4:55 AM 41.0 °F 39.0 °F 35.6 °F 81% 30.17 in 10.0 mi East 3.5 mph - N/A   Scattered Clouds
5:15 AM 39.2 °F 35.0 °F 35.6 °F 87% 30.18 in 10.0 mi East 5.8 mph - N/A   Partly Cloudy
5:35 AM 39.2 °F 35.9 °F 35.6 °F 87% 30.19 in 10.0 mi East 4.6 mph - N/A   Scattered Clouds
5:55 AM 39.2 °F 35.9 °F 35.6 °F 87% 30.20 in 10.0 mi ESE 4.6 mph - N/A   Scattered Clouds
6:15 AM 39.2 °F 33.6 °F 35.6 °F 87% 30.21 in 10.0 mi East 8.1 mph - N/A   Scattered Clouds
7:15 AM 41.0 °F 35.8 °F 35.6 °F 81% 30.23 in 10.0 mi East 8.1 mph - N/A   Clear
7:35 AM 41.0 °F 36.4 °F 35.6 °F 81% 30.24 in 10.0 mi ESE 6.9 mph - N/A   Clear
7:55 AM 44.6 °F 40.2 °F 33.8 °F 66% 30.24 in 10.0 mi East 8.1 mph - N/A   Clear
8:15 AM 46.4 °F 41.5 °F 32.0 °F 57% 30.24 in 10.0 mi ENE 10.4 mph - N/A   Clear
8:35 AM 48.2 °F - 32.0 °F 54% 30.25 in 10.0 mi ENE 11.5 mph - N/A   Clear
8:55 AM 48.2 °F - 30.2 °F 50% 30.26 in 10.0 mi NE 12.7 mph - N/A   Clear
9:15 AM 50.0 °F - 32.0 °F 50% 30.26 in 10.0 mi ENE 11.5 mph - N/A   Unknown
9:35 AM 51.8 °F - 32.0 °F 47% 30.26 in 10.0 mi ENE 10.4 mph - N/A   Unknown
9:55 AM 53.6 °F - 33.8 °F 47% 30.25 in 10.0 mi NE 10.4 mph - N/A   Clear
10:15 AM 53.6 °F - 35.6 °F 51% 30.25 in 10.0 mi NE 8.1 mph - N/A   Clear
10:35 AM 55.4 °F - 35.6 °F 47% 30.25 in 6.0 mi NNE 8.1 mph - N/A   Haze
10:55 AM 55.4 °F - 35.6 °F 47% 30.24 in 10.0 mi NNE 10.4 mph - N/A   Unknown
11:15 AM 57.2 °F - 35.6 °F 44% 30.25 in 10.0 mi ENE 5.8 mph - N/A   Unknown
11:35 AM 57.2 °F - 35.6 °F 44% 30.24 in 10.0 mi NE 4.6 mph - N/A   Unknown
11:55 AM 59.0 °F - 35.6 °F 42% 30.22 in 10.0 mi East 3.5 mph - N/A   Unknown
12:15 PM 57.2 °F - 37.4 °F 48% 30.21 in 10.0 mi WNW 5.8 mph - N/A   Clear
12:55 PM 59.0 °F - 37.4 °F 45% 30.19 in 10.0 mi WNW 11.5 mph - N/A   Clear
1:15 PM 59.0 °F - 39.2 °F 48% 30.18 in 5.0 mi WNW 11.5 mph - N/A   Haze
1:55 PM 59.0 °F - 39.2 °F 48% 30.17 in 10.0 mi WNW 12.7 mph - N/A   Clear
2:15 PM 60.8 °F - 39.2 °F 45% 30.17 in 10.0 mi WNW 13.8 mph - N/A   Clear
2:35 PM 60.8 °F - 41.0 °F 48% 30.17 in 10.0 mi WNW 11.5 mph - N/A   Clear
2:55 PM 59.0 °F - 41.0 °F 51% 30.17 in 10.0 mi WNW 15.0 mph - N/A   Clear
3:15 PM 60.8 °F - 41.0 °F 48% 30.16 in 10.0 mi WNW 12.7 mph 18.4 mph N/A   Clear
3:35 PM 60.8 °F - 41.0 °F 48% 30.16 in 10.0 mi WNW 11.5 mph - N/A   Clear
3:55 PM 59.0 °F - 41.0 °F 51% 30.16 in 10.0 mi WNW 11.5 mph - N/A   Clear
4:15 PM 59.0 °F - 41.0 °F 51% 30.17 in 10.0 mi WNW 10.4 mph - N/A   Clear
4:35 PM 59.0 °F - 42.8 °F 55% 30.17 in 10.0 mi WNW 11.5 mph - N/A   Clear
4:55 PM 59.0 °F - 41.0 °F 51% 30.17 in 10.0 mi WNW 10.4 mph - N/A   Clear
5:15 PM 59.0 °F - 41.0 °F 51% 30.17 in 10.0 mi NW 9.2 mph - N/A   Clear
5:35 PM 59.0 °F - 42.8 °F 55% 30.17 in 10.0 mi West 9.2 mph - N/A   Clear
5:55 PM 57.2 °F - 42.8 °F 59% 30.17 in 10.0 mi WNW 6.9 mph - N/A   Clear
6:15 PM 57.2 °F - 44.6 °F 63% 30.18 in 10.0 mi WNW 6.9 mph - N/A   Clear
6:35 PM 55.4 °F - 42.8 °F 63% 30.18 in 10.0 mi NW 6.9 mph - N/A   Clear
6:55 PM 55.4 °F - 42.8 °F 63% 30.17 in 10.0 mi NW 6.9 mph - N/A   Clear
7:15 PM 55.4 °F - 42.8 °F 63% 30.18 in 10.0 mi NW 6.9 mph - N/A   Clear
7:55 PM 55.4 °F - 44.6 °F 67% 30.18 in 10.0 mi North 5.8 mph - N/A   Clear
8:15 PM 53.6 °F - 44.6 °F 72% 30.18 in 10.0 mi NNE 5.8 mph - N/A   Clear
8:35 PM 53.6 °F - 42.8 °F 67% 30.18 in 10.0 mi NNE 4.6 mph - N/A   Clear
8:55 PM 51.8 °F - 42.8 °F 71% 30.18 in 10.0 mi East 3.5 mph - N/A   Clear
9:35 PM 50.0 °F - 42.8 °F 76% 30.19 in 10.0 mi NE 3.5 mph - N/A   Clear
9:55 PM 50.0 °F - 42.8 °F 76% 30.20 in 10.0 mi Calm Calm - N/A   Clear
10:15 PM 48.2 °F - 44.6 °F 87% 30.20 in 10.0 mi NE 3.5 mph - N/A   Clear
10:35 PM 48.2 °F - 42.8 °F 82% 30.21 in 10.0 mi NE 3.5 mph - N/A   Clear
10:55 PM 48.2 °F - 44.6 °F 87% 30.20 in 10.0 mi NE 4.6 mph - N/A   Clear
11:15 PM 48.2 °F - 42.8 °F 82% 30.19 in 10.0 mi ENE 5.8 mph - N/A   Mostly Cloudy
11:35 PM 46.4 °F 45.2 °F 41.0 °F 81% 30.19 in 10.0 mi ENE 3.5 mph - N/A   Mostly Cloudy
11:55 PM 46.4 °F 45.2 °F 42.8 °F 87% 30.19 in 10.0 mi East 3.5 mph - N/A   Partly Cloudy